Location: Newark
(53.3333°N, 83.7500°E)
Time: 05:21:39
(UTC+00:00)

SR - Pass Details

Date: 19 November 2019
Orbit: 573 x 882 km, 66.7° (Epoch: 12 December)

Event Time Altitude Azimuth Distance (km) Brightness Sun altitude
Rises 12:15:56 0° 274° (W) 3,336 ? -16.3°
Reaches altitude 10° 12:18:44 10° 287° (WNW) 2,449 ? -16.7°
Maximum altitude 12:23:27 26° 343° (NNW) 1,647 ? -17.4°
Enters shadow 12:27:14 14° 31° (NNE) 2,235 ? -18.0°
